Home   Weather   Nagercoil   Past weeks

Flag for India Past Weather in Nagercoil, Tamil Nadu, India — Yesterday and Last 2 Weeks

Now
82 °F

More clouds than sun.


Feels Like: 89 °F
Forecast: 76 / 87 °F
Wind: 12 mph from Northwest

Location: Thiruvananthapuram

Current Time: Sep 30, 2016 at 5:22:04 PM

Latest Report: Sep 30, 2016 at 4:30 PM


Visibility: 3 mi

Pressure: 29.71 "Hg

Humidity: 79%

Dew Point: 75 °F

Location of NagercoilLocation

Past Weather in Nagercoil — Graph

°F

Nagercoil Temperature Yesterday

Maximum temperature yesterday: 86 °F (at 11:30 AM)
Minimum temperature yesterday: 79 °F (at 4:30 AM)
Average temperature yesterday: 82 °F

High & Low Weather Summary for the Past Weeks

 TemperatureHumidityPressure
High88 °F (Sep 16, 10:30 AM)94% (Sep 20, 3:00 AM)29.92 "Hg (Sep 20, 3:00 AM)
Low77 °F (Sep 18, 10:30 AM)59% (Sep 23, 12:00 PM)29.68 "Hg (Sep 24, 2:30 PM)
Average82 °F82%29.79 "Hg
* Reported Sep 15 3:30 PM — Sep 30 4:00 PM, Nagercoil, Weather by CustomWeather, © 2016

Note: Actual official high and low records may vary slightly from our data, if they occured in-between our weather recording intervals... More about our weather records

Advertising

Nagercoil Weather History for the Previous 24 Hours

Scroll right to see more
 ConditionsComfort  
Time TempWeatherWind HumidityBarometerVisibility
4:00 PM
Fri, Sep 30
84 °FMore clouds than sun.10 mph79%29.68 "Hg3 mi
3:30 PM84 °FMore clouds than sun.15 mph74%29.71 "Hg3 mi
3:00 PM84 °FMore clouds than sun.16 mph74%29.71 "Hg3 mi
2:30 PM84 °FMore clouds than sun.15 mph74%29.71 "Hg3 mi
2:00 PM84 °FMore clouds than sun.10 mph74%29.71 "Hg3 mi
1:30 PM84 °FScattered clouds.14 mph70%29.74 "Hg3 mi
1:00 PM84 °FBroken clouds.13 mph74%29.74 "Hg3 mi
12:30 PM84 °FScattered clouds.12 mph74%29.74 "Hg3 mi
12:00 PM84 °FScattered clouds.13 mph74%29.77 "Hg3 mi
11:30 AM84 °FScattered clouds.13 mph74%29.77 "Hg3 mi
11:00 AM84 °FScattered clouds.12 mph74%29.80 "Hg2 mi
10:30 AM86 °FScattered clouds.10 mph70%29.80 "Hg2 mi
10:00 AM84 °FScattered clouds.12 mph74%29.80 "Hg2 mi
9:30 AM84 °FPartly sunny.12 mph74%29.80 "Hg2 mi
9:00 AM84 °FPartly sunny.8 mph79%29.80 "Hg2 mi
8:30 AM81 °FPartly sunny.10 mph84%29.80 "Hg2 mi
8:00 AM81 °FPartly sunny.8 mph84%29.80 "Hg2 mi
7:30 AM79 °FScattered clouds.6 mph89%29.77 "Hg2 mi
7:00 AM79 °FScattered clouds.6 mph89%29.77 "Hg2 mi
6:30 AM79 °FPassing clouds.6 mph84%29.77 "Hg2 mi
6:00 AM77 °FPassing clouds.6 mph89%29.74 "Hg2 mi
5:30 AM77 °FPassing clouds.6 mph89%29.74 "Hg2 mi
5:00 AM77 °FHaze.8 mph89%29.74 "Hg2 mi
4:30 AM79 °FDrizzle. Overcast.12 mph89%29.74 "Hg2 mi
4:00 AM81 °FPassing clouds.8 mph84%29.74 "Hg2 mi
3:30 AM81 °FPassing clouds.6 mph89%29.74 "Hg2 mi
3:00 AM81 °FPassing clouds.7 mph84%29.74 "Hg2 mi
2:30 AM79 °FPassing clouds.7 mph94%29.74 "Hg2 mi
2:00 AM79 °FPassing clouds.6 mph94%29.77 "Hg2 mi
1:30 AM81 °FPassing clouds.6 mph89%29.77 "Hg2 mi
1:00 AM79 °FPassing clouds.7 mph89%29.77 "Hg2 mi
12:30 AM79 °FPassing clouds.6 mph89%29.80 "Hg2 mi
12:00 AM79 °FPassing clouds.6 mph89%29.80 "Hg2 mi
11:30 PM
Thu, Sep 29
81 °FPassing clouds.7 mph89%29.80 "Hg2 mi
11:00 PM81 °FPassing clouds.5 mph89%29.80 "Hg2 mi
10:30 PM81 °FPassing clouds.7 mph89%29.83 "Hg2 mi
10:00 PM81 °FPassing clouds.7 mph89%29.80 "Hg2 mi
9:30 PM81 °FPassing clouds.8 mph89%29.80 "Hg2 mi
9:00 PM81 °FPassing clouds.7 mph89%29.80 "Hg2 mi
8:30 PM81 °FPassing clouds.7 mph89%29.77 "Hg2 mi
8:00 PM81 °FPassing clouds.9 mph89%29.77 "Hg2 mi
7:30 PM81 °FPassing clouds.10 mph89%29.77 "Hg2 mi
7:00 PM81 °FPassing clouds.12 mph89%29.74 "Hg2 mi
6:30 PM81 °FScattered clouds.12 mph89%29.74 "Hg2 mi
6:00 PM81 °FScattered clouds.13 mph89%29.74 "Hg2 mi
5:30 PM82 °FScattered clouds.14 mph84%29.71 "Hg2 mi
5:00 PM82 °FScattered clouds.12 mph84%29.71 "Hg3 mi
Weather by CustomWeather, © 2016

See weather overviewHow to use our weather pages